Location: Buckeye Ditch
(40.9104°N, 122.9517°W)
Time: 12:41:44
(UTC+00:00)

Tiros 1 despin weight - All Passes

Search period start: 18 May 2025 00:00
Search period end: 28 May 2025 00:00
Orbit: 563 x 602 km, 48.2° (Epoch: 17 May)

Date Brightness Start Highest point End Pass type
(mag) Time Alt. Az. Time Alt. Az. Time Alt. Az.
18 May - 09:41:05 10° SSE 09:43:20 14° SE 09:45:37 10° E visible
18 May - 11:19:06 10° SW 11:23:30 73° SSE 11:27:57 10° ENE visible
18 May - 13:00:21 10° W 13:04:31 39° NNW 13:08:44 10° NE daylight
18 May - 14:42:00 10° WNW 14:46:03 33° N 14:50:07 10° ENE daylight
18 May - 16:22:53 10° WNW 16:27:20 68° NNE 16:31:47 10° ESE daylight
18 May - 18:04:05 10° W 18:07:52 27° SW 18:11:37 10° SSE daylight
19 May - 09:44:35 10° S 09:48:01 23° SE 09:51:29 10° E visible
19 May - 11:24:00 10° WSW 11:28:25 78° NNW 11:32:53 10° ENE visible
19 May - 13:05:35 10° WNW 13:09:39 34° N 13:13:44 10° ENE daylight
19 May - 14:47:01 10° WNW 14:51:11 37° NNE 14:55:20 10° E daylight
19 May - 16:27:48 10° WNW 16:32:17 85° SSW 16:36:45 10° ESE daylight
19 May - 18:09:39 10° W 18:12:34 17° SW 18:15:28 10° S daylight
20 May - 09:48:44 10° SSW 09:52:44 36° SE 09:56:47 10° ENE visible
20 May - 11:29:03 10° WSW 11:33:24 56° NNW 11:37:48 10° ENE visible
20 May - 13:10:47 10° WNW 13:14:47 32° N 13:18:48 10° ENE daylight
20 May - 14:51:58 10° NW 14:56:16 44° NNE 15:00:33 10° E daylight
20 May - 16:32:47 10° WNW 16:37:10 56° SW 16:41:31 10° SE daylight
21 May - 09:53:15 10° SW 09:57:32 56° SE 10:01:53 10° ENE visible
21 May - 11:34:12 10° W 11:38:26 43° NNW 11:42:42 10° NE visible
21 May - 13:15:54 10° WNW 13:19:54 32° N 13:23:56 10° ENE daylight
21 May - 14:56:53 10° WNW 15:01:17 57° NNE 15:05:41 10° ESE daylight
21 May - 16:37:51 10° WNW 16:41:57 36° SW 16:46:01 10° SSE daylight
22 May - 08:19:19 10° S 08:22:08 17° SE 08:24:59 10° E visible
22 May - 09:58:00 10° WSW 10:02:22 85° SSE 10:06:50 10° ENE visible
22 May - 11:39:23 10° W 11:43:29 36° NNW 11:47:38 10° ENE visible
22 May - 13:20:57 10° WNW 13:25:01 34° N 13:29:06 10° ENE daylight
22 May - 15:01:46 10° WNW 15:06:14 78° NNE 15:10:42 10° ESE daylight
22 May - 16:43:09 10° W 16:46:39 23° SW 16:50:08 10° S daylight
23 May - 08:23:07 10° SSW 08:26:47 27° SE 08:30:30 10° E visible
23 May - 10:02:56 10° WSW 10:07:17 68° NNW 10:11:43 10° ENE visible
23 May - 11:44:34 10° WNW 11:48:35 32° N 11:52:37 10° ENE visible
23 May - 13:25:54 10° NW 13:30:06 39° NNE 13:34:18 10° E daylight
23 May - 15:06:40 10° WNW 15:11:07 72° SSW 15:15:33 10° SE daylight
23 May - 16:48:58 10° W 16:51:17 14° SW 16:53:36 10° SSW daylight
24 May - 08:27:24 10° SSW 08:31:30 43° SE 08:35:41 10° ENE visible
24 May - 10:07:59 10° W 10:12:15 50° NNW 10:16:35 10° NE visible
24 May - 11:49:42 10° WNW 11:53:41 31° N 11:57:41 10° ENE visible
24 May - 13:30:48 10° NW 13:35:06 48° NNE 13:39:27 10° E daylight
24 May - 15:11:38 10° WNW 15:15:55 47° SW 15:20:12 10° SE daylight
25 May - 06:54:26 10° SSE 06:56:12 12° SE 06:57:58 10° ESE night (unlit)
25 May - 08:31:59 10° SW 08:36:17 67° SSE 08:40:40 10° ENE visible
25 May - 10:13:07 10° W 10:17:15 40° NNW 10:21:28 10° NE visible
25 May - 11:54:46 10° WNW 11:58:46 32° N 12:02:48 10° ENE visible
25 May - 13:35:39 10° WNW 13:40:05 64° NNE 13:44:31 10° ESE daylight
25 May - 15:16:45 10° WNW 15:20:38 30° SW 15:24:31 10° SSE daylight
26 May - 06:57:35 10° S 07:00:47 20° SE 07:04:01 10° E visible
26 May - 08:36:47 10° WSW 08:41:08 83° NNW 08:45:33 10° ENE visible
26 May - 10:18:17 10° WNW 10:22:19 34° N 10:26:23 10° ENE visible
26 May - 11:59:44 10° WNW 12:03:50 35° N 12:07:57 10° ENE visible
26 May - 13:40:30 10° WNW 13:44:58 90° E 13:49:26 10° ESE daylight
26 May - 15:22:09 10° W 15:25:17 19° SW 15:28:25 10° S daylight
27 May - 07:01:35 10° SSW 07:05:26 32° SE 07:09:20 10° ENE visible
27 May - 08:41:44 10° WSW 08:46:02 59° NNW 08:50:23 10° ENE visible
27 May - 10:23:25 10° WNW 10:27:22 32° N 10:31:22 10° ENE visible
27 May - 12:04:37 10° NW 12:08:51 42° NNE 12:13:05 10° E visible
27 May - 13:45:23 10° WNW 13:49:47 61° SW 13:54:10 10° SE daylight
27 May - 15:28:30 10° WSW 15:29:52 11° SW 15:31:13 10° SSW daylight
